#timestamp,LO_Frequency,Hit,StdDev 
1661878815.4,286046991.7,N
1661878835.2,286046993.3,N
1661878855.1,286046996.6,N
1661878856.0,286046996.6,N
1661878875.8,286046999.5,N
1661878895.7,286046997.4,N
1661878915.5,286046995.6,N
1661878935.3,286046999.6,N
1661878955.2,286047001.0,N
1661878975.0,286046996.5,N
1661878975.9,286046996.5,N
1661878995.8,286046998.9,N
1661879015.6,286046998.3,N
1661879035.4,286047000.8,N
1661879055.3,286047001.6,N
1661879075.1,286047000.7,N
1661879095.8,286047001.6,N
1661879115.7,286047009.1,N
1661879135.5,286047010.2,N
1661879155.4,286047010.4,N
1661879175.2,286047007.0,N
1661879195.0,286047005.4,N
1661879195.9,286047005.4,N
1661879215.8,286047001.8,N
1661879235.6,286047003.8,N
1661879255.4,286047004.3,N
1661879275.3,286047001.4,N
1661879295.1,286047003.2,N
1661879315.9,286047004.2,N
1661879335.7,286047005.9,N
1661879355.5,286047004.0,N
1661879375.4,286047003.6,N
1661879395.2,286047003.0,N
1661879415.0,286047001.5,N
1661879415.9,286047001.5,N
1661879435.8,286047003.3,N
1661879455.6,286047005.0,N
1661879475.5,286047006.1,N
1661879495.3,286047006.6,N
1661879515.1,286047009.6,N
1661879535.9,286047010.2,Y
1661879555.7,286047006.3,P
1661879575.5,286047007.5,P
1661879595.4,286047004.9,P
1661879615.2,286047004.9,Y
1661879635.1,286046998.4,P
1661879636.0,286046998.4,N
1661879655.8,286046996.5,N
1661879675.6,286046997.0,N
1661879695.5,286047000.8,N
1661879715.3,286047001.1,N
1661879735.2,286046996.7,N
1661879755.9,286046997.4,N
1661879775.7,286046996.0,N
1661879795.6,286046994.3,N
1661879815.4,286046993.9,N
1661879835.2,286046995.8,N
1661879855.1,286046995.0,N
1661879856.0,286046995.0,N
1661879875.8,286046995.4,N
1661879895.7,286046995.5,N
1661879915.5,286046997.9,N
1661879935.3,286046997.9,N
1661879955.2,286046995.5,N
1661879975.0,286046999.2,N
1661879975.9,286046999.2,N
1661879995.7,286046994.9,N
1661880015.6,286046994.9,N
1661880035.4,286046994.3,N
1661880055.3,286046996.3,N
1661880075.1,286046999.4,N
1661880076.0,286046999.4,N
1661880095.8,286046998.8,N
1661880115.7,286046998.3,N
1661880135.5,286046999.2,N
1661880155.3,286046993.4,Y
1661880175.2,286046999.4,P
1661880195.0,286046996.6,N
1661880195.9,286046996.6,N
1661880215.8,286046999.8,N
1661880235.6,286047000.1,N
1661880255.4,286047002.2,N
1661880275.3,286047003.1,N
1661880295.1,286047004.3,N
1661880315.9,286047004.3,N
1661880335.7,286047001.7,N
1661880355.5,286047002.1,N
1661880375.4,286047004.4,N
1661880395.2,286047002.0,N
1661880415.0,286047001.3,N
1661880415.9,286047001.3,N
1661880435.8,286047002.0,N
1661880455.6,286046999.7,N
1661880475.5,286047000.3,N
1661880495.3,286047000.2,N
1661880515.1,286047000.5,N
1661880535.9,286047002.1,N
1661880555.7,286047004.4,N
1661880575.5,286047001.7,N
1661880595.4,286047006.0,N
1661880615.2,286047005.6,N
1661880635.1,286047006.0,N
1661880636.0,286047006.0,N
1661880655.8,286047007.3,N
1661880675.6,286047005.3,N
1661880695.5,286047005.2,N
1661880715.3,286047004.6,N
1661880735.1,286047008.3,Y
1661880755.9,286047004.9,P
1661880775.7,286047005.2,P
1661880795.6,286047004.7,P
1661880815.4,286047005.1,Y
1661880835.2,286047001.7,P
1661880855.1,286046998.7,N
1661880856.0,286046998.7,N
1661880875.8,286047001.2,N
1661880895.6,286047002.3,N
1661880915.5,286047002.8,N
1661880935.3,286046999.7,N
1661880955.2,286047001.3,N
1661880975.9,286047002.9,N
1661880995.7,286047005.6,Y
1661881015.6,286047003.3,P
1661881035.4,286047005.5,P
1661881055.3,286047004.0,N
1661881075.1,286047003.7,N
1661881076.0,286047003.7,N
1661881095.8,286047003.0,N
1661881115.7,286047001.7,N
1661881135.5,286047001.0,N
1661881155.3,286047000.8,N
1661881175.2,286047000.4,N
1661881195.0,286047004.2,N
1661881195.9,286047004.2,N
1661881215.8,286047001.2,N
1661881235.6,286047000.7,N
1661881255.4,286047001.0,N
1661881275.3,286047001.1,N
1661881295.1,286047000.7,N
1661881315.8,286046999.4,N
1661881335.7,286047000.7,N
1661881355.5,286047001.1,N
1661881375.4,286046999.0,N
1661881395.2,286046997.1,N
1661881415.0,286046995.6,N
1661881415.9,286046995.6,N
1661881435.8,286046997.8,N
1661881455.6,286046997.0,N
1661881475.5,286046996.5,N
1661881495.3,286046996.7,N
1661881515.1,286047001.7,N
1661881535.9,286047003.6,N
1661881555.7,286047006.9,N
1661881575.5,286047006.9,N
1661881595.4,286047004.9,N
1661881615.2,286047005.4,N
1661881635.1,286047005.1,N
1661881636.0,286047005.1,N
1661881655.8,286047006.0,N
1661881675.6,286047007.2,N
1661881695.5,286047010.2,N
1661881715.3,286047008.9,N
1661881735.2,286047010.8,N
1661881755.9,286047007.9,N
1661881775.7,286047008.4,N
1661881795.6,286047009.6,N
1661881815.4,286047006.3,N
1661881835.2,286047006.6,N
1661881855.1,286047013.7,N
1661881856.0,286047013.7,N
1661881875.8,286047012.7,N
1661881895.7,286047015.1,N
1661881915.5,286047011.3,N
1661881935.3,286047013.4,N
1661881955.2,286047013.5,N
1661881975.0,286047014.0,N
1661881975.9,286047014.0,N
1661881995.7,286047009.4,N
1661882015.6,286047011.1,N
1661882035.4,286047013.7,Y
1661882055.3,286047007.5,P
1661882075.1,286047008.0,P
1661882095.8,286047008.7,P
1661882115.7,286047004.8,Y
1661882135.5,286047001.4,P
1661882155.4,286047009.5,N
1661882175.2,286047009.4,N
1661882195.0,286047010.3,Y
1661882195.9,286047010.3,P
1661882215.8,286047001.9,N
1661882235.6,286046999.2,N
1661882255.4,286046998.8,N
1661882275.3,286047001.9,N
1661882295.1,286047003.9,N
1661882315.9,286046999.9,N
1661882335.7,286046998.8,N
1661882355.5,286046995.9,N
1661882375.4,286046993.8,N
1661882395.2,286046994.2,N
